Вернуться в каталог

TIUNGSAT 1

АктивенНаукаVLEO
NORAD 26548·PAYLOAD·🇲🇾 Malaysia

Запущен Sep 26, 2000 с Baikonur Cosmodrome

Loading…

Ближайшие Пролёты (ближайшие 24 часа)

TLE

СвежийSource: Space-Track

Эпоха: Sep 14, 2026, 20:36 UTC

1 26548U 00057D   26257.85839690  .00001991  00000-0  16157-3 0  9990
2 26548  64.5453 199.9869 0045802 280.0556  79.5393 15.01975503409690

Отслеживайте TIUNGSAT 1 в реальном времени с AllMySat

Download on the App Store